GW3042 Weather Reports


time (UTC)temp
C
wind
direction
speed
KPH
gust
KPH
rain 1hr
cm
rain 24hr
cm
rain mn
cm
humidity
%
barometer
mb
20260503021602 10 28 0.0 0.0 0.00 0.00 0.00 84 1020.4
20260503020051 10 28 0.0 0.0 0.00 0.00 0.00 84 1020.4
20260503014544 11 28 0.0 0.0 0.00 0.00 0.00 83 1020.4
20260503013035 11 28 0.0 0.0 0.00 0.00 0.00 83 1020.6
20260503011521 11 28 0.0 0.0 0.00 0.00 0.00 82 1020.6
20260503010010 11 28 0.0 0.0 0.00 0.00 0.00 82 1020.8
20260503004607 11 28 0.0 0.0 0.00 0.00 0.00 81 1020.9
20260503003053 12 28 0.0 0.0 0.00 0.00 0.00 80 1021.0
20260503001528 12 28 0.0 0.0 0.00 0.00 0.00 79 1021.1
20260503000013 12 28 0.0 0.0 0.00 0.00 0.00 78 1021.2
20260502234614 12 28 0.0 0.0 0.00 0.00 0.00 77 1021.3
20260502233029 12 28 0.0 0.0 0.00 0.00 0.00 77 1021.4
20260502231526 13 28 0.0 0.0 0.00 0.00 0.00 77 1021.3
20260502230017 13 28 0.0 0.0 0.00 0.00 0.00 76 1021.2
20260502224506 13 28 0.0 0.0 0.00 0.00 0.00 75 1021.3
20260502223105 13 28 0.0 0.0 0.00 0.00 0.00 74 1021.3
20260502221549 13 28 0.0 0.0 0.00 0.00 0.00 72 1021.4
20260502220059 14 28 0.0 0.0 0.00 0.00 0.00 71 1021.2
20260502214540 15 28 0.0 0.0 0.00 0.00 0.00 70 1021.2
20260502213038 15 28 0.0 0.0 0.00 0.00 0.00 68 1021.2
20260502211522 16 28 0.0 3.2 0.00 0.00 0.00 67 1021.1
20260502210008 16 28 0.0 3.2 0.00 0.00 0.00 65 1021.0
20260502204604 16 136 4.8 12.9 0.00 0.00 0.00 66 1020.8
20260502203112 16 147 4.8 12.9 0.00 0.00 0.00 66 1020.7
20260502201539 17 158 4.8 11.3 0.00 0.00 0.00 63 1020.6
20260502200024 17 123 4.8 12.9 0.00 0.00 0.00 61 1020.6
20260502194512 17 159 4.8 14.5 0.00 0.00 0.00 60 1020.5
20260502193003 18 139 1.6 8.0 0.00 0.00 0.00 58 1020.5
20260502191554 19 133 0.0 6.4 0.00 0.00 0.00 55 1020.4
20260502190046 20 47 1.6 6.4 0.00 0.00 0.00 49 1020.1
20260502184541 20 115 3.2 11.3 0.00 0.00 0.00 49 1020.1
20260502183028 21 56 1.6 12.9 0.00 0.00 0.00 49 1020.0
20260502181512 21 129 3.2 11.3 0.00 0.00 0.00 48 1019.7
20260502163003 24 349 0.0 6.4 0.00 0.00 0.00 40 1019.2
20260502161553 24 130 0.0 8.0 0.00 0.00 0.00 40 1019.2
20260502151503 24 136 4.8 11.3 0.00 0.00 0.00 42 1019.8
20260502123010 22 141 1.6 12.9 0.00 0.00 0.00 49 1022.0
20260502121601 22 148 1.6 12.9 0.00 0.00 0.00 45 1022.3
20260502114539 22 85 1.6 12.9 0.00 0.00 0.00 45 1022.9
20260502113029 21 43 3.2 12.9 0.00 0.00 0.00 47 1023.2
20260502111521 21 125 1.6 6.4 0.00 0.00 0.00 51 1023.4
20260502110009 21 308 1.6 9.7 0.00 0.00 0.00 47 1023.8
20260502104609 21 47 1.6 8.0 0.00 0.00 0.00 51 1024.2
20260502103048 20 204 1.6 11.3 0.00 0.00 0.00 51 1024.5
20260502101543 20 27 1.6 6.4 0.00 0.00 0.00 55 1024.7
20260502071531 13 154 0.0 0.0 0.00 0.00 0.00 79 1026.8
20260502070035 12 147 0.0 0.0 0.00 0.00 0.00 82 1026.8
20260502064506 11 147 0.0 0.0 0.00 0.00 0.00 87 1027.0
20260502063121 10 147 0.0 0.0 0.00 0.00 0.00 89 1027.2
20260502061549 9 147 0.0 0.0 0.00 0.00 0.00 90 1027.3
20260502060043 8 147 0.0 0.0 0.00 0.00 0.00 90 1027.3
20260502054540 8 147 0.0 0.0 0.00 0.00 0.00 90 1027.4
20260502053018 8 147 0.0 0.0 0.00 0.00 0.00 90 1027.4
20260502051507 7 147 0.0 0.0 0.00 0.00 0.00 89 1027.3
20260502050058 7 147 0.0 0.0 0.00 0.00 0.00 89 1027.2
20260502044547 7 147 0.0 0.0 0.00 0.00 0.00 89 1027.2
20260502043050 7 147 0.0 0.0 0.00 0.00 0.00 89 1027.2
20260502041544 7 147 0.0 0.0 0.00 0.00 0.00 89 1027.0
20260502040030 7 147 0.0 0.0 0.00 0.00 0.00 88 1026.9
20260502034504 7 147 0.0 0.0 0.00 0.00 0.00 88 1026.9
20260502033055 7 147 0.0 0.0 0.00 0.00 0.00 88 1026.7
20260502031545 8 147 0.0 0.0 0.00 0.00 0.00 88 1026.8
20260502030043 8 147 0.0 0.0 0.00 0.00 0.00 88 1026.7
20260502024521 8 147 0.0 0.0 0.00 0.00 0.00 87 1026.7
20260502023021 8 147 0.0 0.0 0.00 0.00 0.00 87 1026.6